Hourly Data Report for October 19, 2014

All times are specified in Local Standard Time (LST). Add 1 hour to adjust for Daylight Saving Time where and when it is observed.

BATHURST A
NEW BRUNSWICK

47°37'47.000" N
65°44'20.000" W
58.80 m
8100505
71574
ZBF

Download Data

Hourly Data (October 2014)
Hourly Data Report for October 19, 2014
Temp Definition
°C
Dew Point Temp Definition
°C
Rel Hum Definition
%
Wind Dir Definition
10's deg

Wind Spd Definition
km/h
Visibility Definition
km
Stn Press Definition
kPa
Hmdx Definition


Wind Chill Definition


Weather Definition


TIME
00:00 Legend Double Dagger 12.7 12.1 96 16 11 8.1 98.91     Fog
01:00 Legend Double Dagger 12.6 12.0 96 17 8 6.4 98.87     Fog
02:00 Legend Double Dagger 12.8 12.0 95 18 9 9.7 98.83     Fog
03:00 Legend Double Dagger 12.7 12.1 96 20 9 9.7 98.79     Rain Showers,Fog
04:00 Legend Double Dagger 12.7 12.2 97 19 8 9.7 98.80     Fog
05:00 Legend Double Dagger 12.3 12.0 98 19 4 9.7 98.80     Fog
06:00 Legend Double Dagger 8.6 6.4 86 28 20 24.1 98.97     LegendNANA
07:00 Legend Double Dagger 6.6 4.6 87 25 14 24.1 99.11     LegendNANA
08:00 Legend Double Dagger 6.7 3.7 81 29 12 24.1 99.27     Mainly Clear
09:00 Legend Double Dagger 6.7 2.8 76 27 25 24.1 99.37     LegendNANA
10:00 Legend Double Dagger 7.4 2.1 69 30 22 24.1 99.42     LegendNANA
11:00 Legend Double Dagger 7.9 1.8 65 29 17 24.1 99.47     Mainly Clear
12:00 Legend Double Dagger 8.5 1.0 59 27 17 24.1 99.52     LegendNANA
13:00 Legend Double Dagger 7.8 0.8 61 29 21 24.1 99.55     LegendNANA
14:00 Legend Double Dagger 8.6 0.1 55 29 27 24.1 99.56     Mainly Clear
15:00 Legend Double Dagger 8.5 0.3 56 27 19 24.1 99.58     LegendNANA
16:00 Legend Double Dagger 7.7 0.0 58 27 13 24.1 99.71     LegendNANA
17:00 Legend Double Dagger 6.8 0.0 62 29 19 24.1 99.78     Mostly Cloudy
18:00 Legend Double Dagger 5.1 0.1 70 28 7 24.1 99.86     LegendNANA
19:00 Legend Double Dagger 4.9 -0.1 70 27 8 24.1 99.88     LegendNANA
20:00 Legend Double Dagger 4.7 0.1 72 26 7 24.1 99.85     Cloudy
21:00 Legend Double Dagger 4.5 -0.1 72 27 6 24.1 99.80     LegendNANA
22:00 Legend Double Dagger 3.9 0.2 77 26 6 24.1 99.74     LegendNANA
23:00 Legend Double Dagger 2.8 -0.1 81 26 8 24.1 99.70     Clear

Notes on Data Quality.

Legend

  • E = Estimated
  • M = Missing
  • NA = Not Available
  • ‡ = Partner data that is not subject to review by the National Climate Archives
Date modified: